Patuxent River, MD

7:46 AM EDT on May 25, 2018 (GMT -0400)
Patuxent River Naval Air Station

Weather History for KNHK - November, 2013

Change the Weather History Date:

Friday, November 8, 2013

  Actual Average Record
Temperature  
Mean Temperature 42 °F -  
Max Temperature 53 °F 63 °F 76 °F (1987)
Min Temperature 32 °F 42 °F 29 °F (1976)
Degree Days  
Heating Degree Days 22    
Moisture  
Dew Point 24 °F    
Average Humidity 46    
Maximum Humidity 79    
Minimum Humidity 30    
Precipitation  
Precipitation 0.00 in - - ()
Sea Level Pressure  
Sea Level Pressure 30.20 in    
Wind  
Wind Speed 13 mph (NW)    
Max Wind Speed 23 mph    
Max Gust Speed 33 mph    
Visibility 10 miles    
Events Rain    
Averages and records for this station are not official NWS values.
T = Trace of Precipitation, MM = Missing Value Source: NWS Daily Summary

Daily Weather History Graph

Daily Weather History Graph

Search for Another Location

Airport or City:

Astronomy

Nov. 08, 2013 Rise Set
Actual Time 6:39 AM EST 4:58 PM EST
Civil Twilight 6:11 AM EST 5:26 PM EST
Nautical Twilight 5:40 AM EST 5:58 PM EST
Astronomical Twilight 5:09 AM EST 6:29 PM EST
Moon 11:33 AM EST (11/8) 10:16 PM EST (11/8)
Length of Visible Light 11h 14m
Length of Day
10h 19m
Waxing Crescent, 33% of the Moon is Illuminated
Nov 8
Waxing Crescent
Nov 10
First Quarter
Nov 17
Full
Nov 25
Last Quarter
Dec 2
New

Hourly Weather History & Observations

Time (EST) Temp. Windchill Dew Point Humidity Pressure Visibility Wind Dir Wind Speed Gust Speed Precip Events Conditions
12:52 AM 46.0 °F 37.8 °F 21.9 °F 39% 30.09 in 10.0 mi NNW 23.0 mph 33.4 mph 0.00 in Rain Light Rain
1:52 AM 45.0 °F 38.2 °F 21.9 °F 40% 30.10 in 10.0 mi NNW 15.0 mph 23.0 mph 0.00 in   Clear
2:52 AM 42.1 °F 38.4 °F 21.9 °F 45% 30.12 in 10.0 mi West 5.8 mph - 0.00 in   Clear
3:52 AM 35.1 °F 30.1 °F 24.1 °F 64% 30.12 in 10.0 mi WSW 5.8 mph - 0.00 in   Clear
4:52 AM 34.0 °F 28.0 °F 25.0 °F 70% 30.14 in 10.0 mi WSW 6.9 mph - N/A   Clear
5:02 AM 35.6 °F 30.7 °F 24.8 °F 65% 30.14 in 10.0 mi WSW 5.8 mph - N/A   Clear
5:52 AM 35.1 °F 29.3 °F 25.0 °F 67% 30.15 in 10.0 mi WSW 6.9 mph - N/A   Partly Cloudy
6:52 AM 32.0 °F 27.5 °F 26.1 °F 79% 30.16 in 10.0 mi WSW 4.6 mph - N/A   Partly Cloudy
7:52 AM 42.1 °F 40.2 °F 30.9 °F 65% 30.18 in 10.0 mi WSW 3.5 mph - N/A   Clear
8:52 AM 48.9 °F - 26.1 °F 41% 30.19 in 10.0 mi WNW 9.2 mph - N/A   Partly Cloudy
9:52 AM 50.0 °F - 24.1 °F 36% 30.19 in 10.0 mi WNW 19.6 mph 26.5 mph N/A   Partly Cloudy
10:52 AM 52.0 °F - 24.1 °F 34% 30.19 in 10.0 mi NW 18.4 mph 25.3 mph N/A   Partly Cloudy
11:52 AM 52.0 °F - 24.1 °F 34% 30.18 in 10.0 mi NW 20.7 mph 27.6 mph N/A   Scattered Clouds
12:52 PM 52.0 °F - 24.1 °F 34% 30.18 in 10.0 mi NW 19.6 mph 23.0 mph N/A   Mostly Cloudy
1:52 PM 53.1 °F - 24.1 °F 32% 30.19 in 10.0 mi NNW 18.4 mph 25.3 mph N/A   Mostly Cloudy
2:52 PM 52.0 °F - 21.0 °F 30% 30.19 in 10.0 mi NW 20.7 mph 29.9 mph N/A   Scattered Clouds
3:52 PM 51.1 °F - 21.9 °F 32% 30.20 in 10.0 mi NNW 17.3 mph 23.0 mph N/A   Scattered Clouds
4:52 PM 48.9 °F - 19.9 °F 32% 30.23 in 10.0 mi NNW 11.5 mph - N/A   Partly Cloudy
5:52 PM 46.9 °F - 21.9 °F 37% 30.25 in 10.0 mi NNW 9.2 mph - N/A   Clear
6:52 PM 46.9 °F - 23.0 °F 39% 30.27 in 10.0 mi NNW 8.1 mph - N/A   Clear
7:52 PM 45.0 °F 40.6 °F 23.0 °F 42% 30.29 in 10.0 mi NNW 8.1 mph - N/A   Clear
8:52 PM 44.1 °F 39.5 °F 24.1 °F 45% 30.31 in 10.0 mi NNW 8.1 mph - N/A   Clear
9:52 PM 43.0 °F 41.3 °F 24.1 °F 47% 30.32 in 10.0 mi NNW 3.5 mph - N/A   Clear
10:52 PM 43.0 °F 39.5 °F 24.1 °F 47% 30.32 in 10.0 mi NNW 5.8 mph - N/A   Clear
11:52 PM 43.0 °F 37.7 °F 24.1 °F 47% 30.32 in 10.0 mi NNW 9.2 mph - N/A   Clear